Wetterdaten: Samstag, 19.07.2014
Datum Zeit Temp. A. Temp. A. min Temp. A. max Feuchte A. Bod.Feucht 4 Luftdruck Regen Wind Richtung Richtung Sonnenschein ET Solar Taupunkt Windchill Windben Empfang
19.07.2014 00:00 23,3 C 0,0 C 0,0 C 50 % 0 cb 1014,5 hPa 0,0 l/m 5,1 km/h (1 Bft) N 355 0 min 0,000 mm 0 W/m 12,3 C 23,3 C 5,1 km/h (1 Bft) 0,00 %
19.07.2014 00:05 23,3 C 0,0 C 0,0 C 49 % 0 cb 1014,5 hPa 0,0 l/m 3,0 km/h (1 Bft) NO 35 0 min 0,000 mm 0 W/m 12,0 C 23,3 C 3,0 km/h (1 Bft) 0,00 %
19.07.2014 00:10 23,0 C 0,0 C 0,0 C 50 % 0 cb 1014,5 hPa 0,0 l/m 4,2 km/h (1 Bft) N-NW 345 0 min 0,000 mm 0 W/m 12,0 C 23,0 C 4,2 km/h (1 Bft) 0,00 %
19.07.2014 00:15 22,8 C 0,0 C 0,0 C 51 % 0 cb 1014,5 hPa 0,0 l/m 4,8 km/h (1 Bft) NW 315 0 min 0,000 mm 0 W/m 12,1 C 22,8 C 4,8 km/h (1 Bft) 0,00 %
19.07.2014 00:20 22,5 C 0,0 C 0,0 C 53 % 0 cb 1014,5 hPa 0,0 l/m 7,0 km/h (2 Bft) NW 325 0 min 0,000 mm 0 W/m 12,4 C 22,5 C 7,0 km/h (2 Bft) 0,00 %
19.07.2014 00:25 22,5 C 0,0 C 0,0 C 53 % 0 cb 1014,5 hPa 0,0 l/m 4,5 km/h (1 Bft) N 5 0 min 0,000 mm 0 W/m 12,4 C 22,5 C 4,5 km/h (1 Bft) 0,00 %
19.07.2014 00:30 22,6 C 0,0 C 0,0 C 52 % 0 cb 1014,5 hPa 0,0 l/m 4,8 km/h (1 Bft) N-NW 345 0 min 0,000 mm 0 W/m 12,2 C 22,6 C 4,8 km/h (1 Bft) 0,00 %
19.07.2014 00:35 22,5 C 0,0 C 0,0 C 52 % 0 cb 1014,5 hPa 0,0 l/m 3,0 km/h (1 Bft) NW 325 0 min 0,000 mm 0 W/m 12,1 C 22,5 C 3,0 km/h (1 Bft) 0,00 %
19.07.2014 00:40 22,7 C 0,0 C 0,0 C 52 % 0 cb 1014,5 hPa 0,0 l/m 6,7 km/h (2 Bft) N-NW 345 0 min 0,000 mm 0 W/m 12,3 C 22,7 C 6,7 km/h (2 Bft) 0,00 %
19.07.2014 00:45 22,8 C 0,0 C 0,0 C 51 % 0 cb 1014,5 hPa 0,0 l/m 6,4 km/h (2 Bft) N-NO 25 0 min 0,000 mm 0 W/m 12,1 C 22,8 C 6,4 km/h (2 Bft) 0,00 %
19.07.2014 00:50 22,7 C 0,0 C 0,0 C 51 % 0 cb 1014,5 hPa 0,0 l/m 6,1 km/h (2 Bft) N-NW 340 0 min 0,000 mm 0 W/m 12,0 C 22,7 C 6,1 km/h (2 Bft) 0,00 %
19.07.2014 00:55 22,5 C 0,0 C 0,0 C 52 % 0 cb 1014,5 hPa 0,0 l/m 5,7 km/h (1 Bft) N-NO 20 0 min 0,000 mm 0 W/m 12,1 C 22,5 C 5,7 km/h (1 Bft) 0,00 %
19.07.2014 01:00 22,5 C 0,0 C 0,0 C 52 % 0 cb 1014,5 hPa 0,0 l/m 4,2 km/h (1 Bft) N 0 0 min 0,000 mm 0 W/m 12,1 C 22,5 C 4,2 km/h (1 Bft) 0,00 %
19.07.2014 01:05 22,4 C 0,0 C 0,0 C 52 % 0 cb 1013,5 hPa 0,0 l/m 4,2 km/h (1 Bft) N 0 0 min 0,000 mm 0 W/m 12,1 C 22,4 C 4,2 km/h (1 Bft) 0,00 %
19.07.2014 01:10 22,2 C 0,0 C 0,0 C 52 % 0 cb 1013,5 hPa 0,0 l/m 4,8 km/h (1 Bft) N-NO 15 0 min 0,000 mm 0 W/m 11,9 C 22,2 C 4,8 km/h (1 Bft) 0,00 %
19.07.2014 01:15 22,2 C 0,0 C 0,0 C 53 % 0 cb 1013,5 hPa 0,0 l/m 3,6 km/h (1 Bft) NO 45 0 min 0,000 mm 0 W/m 12,2 C 22,2 C 3,6 km/h (1 Bft) 0,00 %
19.07.2014 01:20 22,2 C 0,0 C 0,0 C 53 % 0 cb 1014,5 hPa 0,0 l/m 3,6 km/h (1 Bft) NO 50 0 min 0,000 mm 0 W/m 12,2 C 22,2 C 3,6 km/h (1 Bft) 0,00 %
19.07.2014 01:25 22,1 C 0,0 C 0,0 C 53 % 0 cb 1014,5 hPa 0,0 l/m 3,6 km/h (1 Bft) W-NW 290 0 min 0,000 mm 0 W/m 12,1 C 22,1 C 3,6 km/h (1 Bft) 0,00 %
19.07.2014 01:30 22,2 C 0,0 C 0,0 C 52 % 0 cb 1014,5 hPa 0,0 l/m 2,1 km/h (1 Bft) N-NW 340 0 min 0,000 mm 0 W/m 11,9 C 22,2 C 2,1 km/h (1 Bft) 0,00 %
19.07.2014 01:35 22,1 C 0,0 C 0,0 C 52 % 0 cb 1014,5 hPa 0,0 l/m 3,6 km/h (1 Bft) N-NW 345 0 min 0,000 mm 0 W/m 11,8 C 22,1 C 3,6 km/h (1 Bft) 0,00 %
19.07.2014 01:40 22,2 C 0,0 C 0,0 C 52 % 0 cb 1014,5 hPa 0,0 l/m 2,4 km/h (1 Bft) N-NO 15 0 min 0,000 mm 0 W/m 11,9 C 22,2 C 2,4 km/h (1 Bft) 0,00 %
19.07.2014 01:45 22,0 C 0,0 C 0,0 C 53 % 0 cb 1014,5 hPa 0,0 l/m 5,4 km/h (1 Bft) NW 315 0 min 0,000 mm 0 W/m 12,0 C 22,0 C 5,4 km/h (1 Bft) 0,00 %
19.07.2014 01:50 21,8 C 0,0 C 0,0 C 53 % 0 cb 1014,5 hPa 0,0 l/m 5,7 km/h (1 Bft) NW 325 0 min 0,000 mm 0 W/m 11,8 C 21,8 C 5,7 km/h (1 Bft) 0,00 %
19.07.2014 01:55 21,8 C 0,0 C 0,0 C 53 % 0 cb 1014,5 hPa 0,0 l/m 4,5 km/h (1 Bft) N-NW 335 0 min 0,000 mm 0 W/m 11,8 C 21,8 C 4,5 km/h (1 Bft) 0,00 %
19.07.2014 02:00 21,6 C 0,0 C 0,0 C 55 % 0 cb 1014,5 hPa 0,0 l/m 3,3 km/h (1 Bft) NO 35 0 min 0,000 mm 0 W/m 12,2 C 21,6 C 3,3 km/h (1 Bft) 0,00 %
19.07.2014 02:05 21,4 C 0,0 C 0,0 C 56 % 0 cb 1014,5 hPa 0,0 l/m 7,9 km/h (2 Bft) N-NO 25 0 min 0,000 mm 0 W/m 12,3 C 21,4 C 7,9 km/h (2 Bft) 0,00 %
19.07.2014 02:10 21,2 C 0,0 C 0,0 C 56 % 0 cb 1014,5 hPa 0,0 l/m 4,8 km/h (1 Bft) N 0 0 min 0,000 mm 0 W/m 12,1 C 21,2 C 4,8 km/h (1 Bft) 0,00 %
19.07.2014 02:15 21,2 C 0,0 C 0,0 C 56 % 0 cb 1014,5 hPa 0,0 l/m 2,4 km/h (1 Bft) O-NO 70 0 min 0,000 mm 0 W/m 12,1 C 21,2 C 2,4 km/h (1 Bft) 0,00 %
19.07.2014 02:20 21,0 C 0,0 C 0,0 C 56 % 0 cb 1014,5 hPa 0,0 l/m 0,6 km/h (0 Bft) O-NO 65 0 min 0,000 mm 0 W/m 11,9 C 21,0 C 0,6 km/h (0 Bft) 0,00 %
19.07.2014 02:25 21,0 C 0,0 C 0,0 C 56 % 0 cb 1014,5 hPa 0,0 l/m 7,3 km/h (2 Bft) N-NW 335 0 min 0,000 mm 0 W/m 11,9 C 21,0 C 7,3 km/h (2 Bft) 0,00 %
19.07.2014 02:30 21,0 C 0,0 C 0,0 C 56 % 0 cb 1014,5 hPa 0,0 l/m 4,5 km/h (1 Bft) N-NW 335 0 min 0,000 mm 0 W/m 11,9 C 21,0 C 4,5 km/h (1 Bft) 0,00 %
19.07.2014 02:35 20,8 C 0,0 C 0,0 C 57 % 0 cb 1014,5 hPa 0,0 l/m 7,3 km/h (2 Bft) N 10 0 min 0,000 mm 0 W/m 12,0 C 20,8 C 7,3 km/h (2 Bft) 0,00 %
19.07.2014 02:40 20,9 C 0,0 C 0,0 C 56 % 0 cb 1014,5 hPa 0,0 l/m 7,0 km/h (2 Bft) NW 325 0 min 0,000 mm 0 W/m 11,8 C 20,9 C 7,0 km/h (2 Bft) 0,00 %
19.07.2014 02:45 20,7 C 0,0 C 0,0 C 57 % 0 cb 1014,5 hPa 0,0 l/m 6,7 km/h (2 Bft) NO 35 0 min 0,000 mm 0 W/m 11,9 C 20,7 C 6,7 km/h (2 Bft) 0,00 %
19.07.2014 02:50 20,8 C 0,0 C 0,0 C 57 % 0 cb 1013,5 hPa 0,0 l/m 7,6 km/h (2 Bft) N 5 0 min 0,000 mm 0 W/m 12,0 C 20,8 C 7,6 km/h (2 Bft) 0,00 %
19.07.2014 02:55 20,8 C 0,0 C 0,0 C 57 % 0 cb 1013,5 hPa 0,0 l/m 7,0 km/h (2 Bft) N-NO 20 0 min 0,000 mm 0 W/m 12,0 C 20,8 C 7,0 km/h (2 Bft) 0,00 %
19.07.2014 03:00 20,6 C 0,0 C 0,0 C 57 % 0 cb 1013,5 hPa 0,0 l/m 6,7 km/h (2 Bft) N 10 0 min 0,000 mm 0 W/m 11,8 C 20,6 C 6,7 km/h (2 Bft) 0,00 %
19.07.2014 03:05 20,6 C 0,0 C 0,0 C 57 % 0 cb 1014,5 hPa 0,0 l/m 7,9 km/h (2 Bft) O-NO 60 0 min 0,000 mm 0 W/m 11,8 C 20,6 C 7,9 km/h (2 Bft) 0,00 %
19.07.2014 03:10 20,6 C 0,0 C 0,0 C 58 % 0 cb 1014,5 hPa 0,0 l/m 5,4 km/h (1 Bft) W-NW 300 0 min 0,000 mm 0 W/m 12,0 C 20,6 C 5,4 km/h (1 Bft) 0,00 %
19.07.2014 03:15 20,6 C 0,0 C 0,0 C 58 % 0 cb 1014,5 hPa 0,0 l/m 5,1 km/h (1 Bft) N-NO 15 0 min 0,000 mm 0 W/m 12,0 C 20,6 C 5,1 km/h (1 Bft) 0,00 %
19.07.2014 03:20 20,6 C 0,0 C 0,0 C 57 % 0 cb 1013,5 hPa 0,0 l/m 5,7 km/h (1 Bft) NO 55 0 min 0,000 mm 0 W/m 11,8 C 20,6 C 5,7 km/h (1 Bft) 0,00 %
19.07.2014 03:25 20,5 C 0,0 C 0,0 C 58 % 0 cb 1013,5 hPa 0,0 l/m 6,4 km/h (2 Bft) W-NW 290 0 min 0,000 mm 0 W/m 11,9 C 20,5 C 6,4 km/h (2 Bft) 0,00 %
19.07.2014 03:30 20,5 C 0,0 C 0,0 C 58 % 0 cb 1013,5 hPa 0,0 l/m 3,9 km/h (1 Bft) O-NO 75 0 min 0,000 mm 0 W/m 11,9 C 20,5 C 3,9 km/h (1 Bft) 0,00 %
19.07.2014 03:35 20,6 C 0,0 C 0,0 C 57 % 0 cb 1013,5 hPa 0,0 l/m 7,6 km/h (2 Bft) N 5 0 min 0,000 mm 0 W/m 11,8 C 20,6 C 7,6 km/h (2 Bft) 0,00 %
19.07.2014 03:40 20,6 C 0,0 C 0,0 C 57 % 0 cb 1013,5 hPa 0,0 l/m 7,3 km/h (2 Bft) NW 320 0 min 0,000 mm 0 W/m 11,8 C 20,6 C 7,3 km/h (2 Bft) 0,00 %
19.07.2014 03:45 20,6 C 0,0 C 0,0 C 57 % 0 cb 1013,5 hPa 0,0 l/m 4,2 km/h (1 Bft) N 355 0 min 0,000 mm 0 W/m 11,8 C 20,6 C 4,2 km/h (1 Bft) 0,00 %
19.07.2014 03:50 20,5 C 0,0 C 0,0 C 57 % 0 cb 1013,5 hPa 0,0 l/m 4,2 km/h (1 Bft) N-NO 30 0 min 0,000 mm 0 W/m 11,7 C 20,5 C 4,2 km/h (1 Bft) 0,00 %
19.07.2014 03:55 20,6 C 0,0 C 0,0 C 57 % 0 cb 1013,5 hPa 0,0 l/m 5,1 km/h (1 Bft) NO 50 0 min 0,000 mm 0 W/m 11,8 C 20,6 C 5,1 km/h (1 Bft) 0,00 %
19.07.2014 04:00 20,7 C 0,0 C 0,0 C 56 % 0 cb 1013,5 hPa 0,0 l/m 7,3 km/h (2 Bft) N 355 0 min 0,000 mm 0 W/m 11,6 C 20,7 C 7,3 km/h (2 Bft) 0,00 %
19.07.2014 04:05 20,7 C 0,0 C 0,0 C 55 % 0 cb 1013,5 hPa 0,0 l/m 6,4 km/h (2 Bft) N 5 0 min 0,000 mm 0 W/m 11,3 C 20,7 C 6,4 km/h (2 Bft) 0,00 %
19.07.2014 04:10 20,6 C 0,0 C 0,0 C 56 % 0 cb 1013,5 hPa 0,0 l/m 5,1 km/h (1 Bft) N 10 0 min 0,000 mm 0 W/m 11,5 C 20,6 C 5,1 km/h (1 Bft) 0,00 %
19.07.2014 04:15 20,5 C 0,0 C 0,0 C 57 % 0 cb 1013,5 hPa 0,0 l/m 6,4 km/h (2 Bft) N-NW 340 0 min 0,000 mm 0 W/m 11,7 C 20,5 C 6,4 km/h (2 Bft) 0,00 %
19.07.2014 04:20 20,4 C 0,0 C 0,0 C 57 % 0 cb 1013,5 hPa 0,0 l/m 4,8 km/h (1 Bft) NO 45 0 min 0,000 mm 0 W/m 11,6 C 20,4 C 4,8 km/h (1 Bft) 0,00 %
19.07.2014 04:25 20,2 C 0,0 C 0,0 C 57 % 0 cb 1013,5 hPa 0,0 l/m 1,5 km/h (1 Bft) N 5 0 min 0,000 mm 0 W/m 11,4 C 20,2 C 1,5 km/h (1 Bft) 0,00 %
19.07.2014 04:30 20,1 C 0,0 C 0,0 C 58 % 0 cb 1013,5 hPa 0,0 l/m 2,4 km/h (1 Bft) N-NO 30 0 min 0,000 mm 0 W/m 11,6 C 20,1 C 2,4 km/h (1 Bft) 0,00 %
19.07.2014 04:35 20,0 C 0,0 C 0,0 C 58 % 0 cb 1013,5 hPa 0,0 l/m 4,8 km/h (1 Bft) NW 310 0 min 0,000 mm 0 W/m 11,5 C 20,0 C 4,8 km/h (1 Bft) 0,00 %
19.07.2014 04:40 19,9 C 0,0 C 0,0 C 58 % 0 cb 1013,5 hPa 0,0 l/m 4,2 km/h (1 Bft) N-NO 20 0 min 0,000 mm 0 W/m 11,4 C 19,9 C 4,2 km/h (1 Bft) 0,00 %
19.07.2014 04:45 19,8 C 0,0 C 0,0 C 58 % 0 cb 1013,5 hPa 0,0 l/m 2,4 km/h (1 Bft) N-NW 345 0 min 0,000 mm 0 W/m 11,3 C 19,8 C 2,4 km/h (1 Bft) 0,00 %
19.07.2014 04:50 19,7 C 0,0 C 0,0 C 58 % 0 cb 1013,5 hPa 0,0 l/m 4,5 km/h (1 Bft) NO 45 0 min 0,000 mm 0 W/m 11,2 C 19,7 C 4,5 km/h (1 Bft) 0,00 %
19.07.2014 04:55 19,8 C 0,0 C 0,0 C 58 % 0 cb 1013,5 hPa 0,0 l/m 6,1 km/h (2 Bft) N 350 0 min 0,000 mm 0 W/m 11,3 C 19,8 C 6,1 km/h (2 Bft) 0,00 %
19.07.2014 05:00 19,8 C 0,0 C 0,0 C 58 % 0 cb 1013,5 hPa 0,0 l/m 4,8 km/h (1 Bft) N 5 0 min 0,000 mm 0 W/m 11,3 C 19,8 C 4,8 km/h (1 Bft) 0,00 %
19.07.2014 05:05 19,8 C 0,0 C 0,0 C 58 % 0 cb 1013,5 hPa 0,0 l/m 4,8 km/h (1 Bft) N-NW 340 0 min 0,000 mm 0 W/m 11,3 C 19,8 C 4,8 km/h (1 Bft) 0,00 %
19.07.2014 05:10 19,6 C 0,0 C 0,0 C 59 % 0 cb 1013,5 hPa 0,0 l/m 1,8 km/h (1 Bft) SO 130 0 min 0,000 mm 0 W/m 11,4 C 19,6 C 1,8 km/h (1 Bft) 0,00 %
19.07.2014 05:15 19,5 C 0,0 C 0,0 C 59 % 0 cb 1013,5 hPa 0,0 l/m 1,8 km/h (1 Bft) NW 325 0 min 0,000 mm 0 W/m 11,3 C 19,5 C 1,8 km/h (1 Bft) 0,00 %
19.07.2014 05:20 19,6 C 0,0 C 0,0 C 59 % 0 cb 1014,5 hPa 0,0 l/m 9,7 km/h (2 Bft) N 5 0 min 0,000 mm 0 W/m 11,4 C 19,6 C 9,7 km/h (2 Bft) 0,00 %
19.07.2014 05:25 19,6 C 0,0 C 0,0 C 59 % 0 cb 1014,5 hPa 0,0 l/m 4,5 km/h (1 Bft) N-NO 30 0 min 0,000 mm 0 W/m 11,4 C 19,6 C 4,5 km/h (1 Bft) 0,00 %
19.07.2014 05:30 19,6 C 0,0 C 0,0 C 59 % 0 cb 1014,5 hPa 0,0 l/m 6,7 km/h (2 Bft) N-NW 335 0 min 0,000 mm 0 W/m 11,4 C 19,6 C 6,7 km/h (2 Bft) 0,00 %
19.07.2014 05:35 19,4 C 0,0 C 0,0 C 59 % 0 cb 1013,5 hPa 0,0 l/m 7,6 km/h (2 Bft) N 10 0 min 0,000 mm 0 W/m 11,2 C 19,4 C 7,6 km/h (2 Bft) 0,00 %
19.07.2014 05:40 19,3 C 0,0 C 0,0 C 59 % 0 cb 1013,5 hPa 0,0 l/m 5,4 km/h (1 Bft) N 10 0 min 0,000 mm 0 W/m 11,1 C 19,3 C 5,4 km/h (1 Bft) 0,00 %
19.07.2014 05:45 19,3 C 0,0 C 0,0 C 59 % 0 cb 1013,5 hPa 0,0 l/m 6,1 km/h (2 Bft) N 10 0 min 0,000 mm 0 W/m 11,1 C 19,3 C 6,1 km/h (2 Bft) 0,00 %
19.07.2014 05:50 19,3 C 0,0 C 0,0 C 59 % 0 cb 1013,5 hPa 0,0 l/m 7,0 km/h (2 Bft) S 170 0 min 0,000 mm 0 W/m 11,1 C 19,3 C 7,0 km/h (2 Bft) 0,00 %
19.07.2014 05:55 19,2 C 0,0 C 0,0 C 60 % 0 cb 1013,5 hPa 0,0 l/m 4,5 km/h (1 Bft) W-NW 300 0 min 0,000 mm 0 W/m 11,2 C 19,2 C 4,5 km/h (1 Bft) 0,00 %
19.07.2014 06:00 19,2 C 0,0 C 0,0 C 60 % 0 cb 1013,5 hPa 0,0 l/m 3,9 km/h (1 Bft) N-NO 15 0 min 0,000 mm 0 W/m 11,2 C 19,2 C 3,9 km/h (1 Bft) 0,00 %
19.07.2014 06:05 19,1 C 0,0 C 0,0 C 60 % 0 cb 1013,5 hPa 0,0 l/m 5,4 km/h (1 Bft) O-NO 70 0 min 0,000 mm 0 W/m 11,1 C 19,1 C 5,4 km/h (1 Bft) 0,00 %
19.07.2014 06:10 19,0 C 0,0 C 0,0 C 61 % 0 cb 1013,5 hPa 0,0 l/m 4,2 km/h (1 Bft) N-NW 340 0 min 0,000 mm 0 W/m 11,3 C 19,0 C 4,2 km/h (1 Bft) 0,00 %
19.07.2014 06:15 19,1 C 0,0 C 0,0 C 60 % 0 cb 1013,5 hPa 0,0 l/m 5,7 km/h (1 Bft) NW 310 0 min 0,000 mm 0 W/m 11,1 C 19,1 C 5,7 km/h (1 Bft) 0,00 %
19.07.2014 06:20 19,1 C 0,0 C 0,0 C 60 % 0 cb 1013,5 hPa 0,0 l/m 5,7 km/h (1 Bft) N 355 0 min 0,000 mm 0 W/m 11,1 C 19,1 C 5,7 km/h (1 Bft) 0,00 %
19.07.2014 06:25 19,2 C 0,0 C 0,0 C 60 % 0 cb 1013,5 hPa 0,0 l/m 4,8 km/h (1 Bft) W-NW 290 0 min 0,000 mm 0 W/m 11,2 C 19,2 C 4,8 km/h (1 Bft) 0,00 %
19.07.2014 06:30 19,3 C 0,0 C 0,0 C 60 % 0 cb 1013,5 hPa 0,0 l/m 3,3 km/h (1 Bft) O-NO 70 0 min 0,000 mm 0 W/m 11,3 C 19,3 C 3,3 km/h (1 Bft) 0,00 %
19.07.2014 06:35 19,4 C 0,0 C 0,0 C 60 % 0 cb 1013,5 hPa 0,0 l/m 4,5 km/h (1 Bft) W 275 0 min 0,000 mm 0 W/m 11,4 C 19,4 C 4,5 km/h (1 Bft) 0,00 %
19.07.2014 06:40 19,4 C 0,0 C 0,0 C 60 % 0 cb 1013,5 hPa 0,0 l/m 5,1 km/h (1 Bft) N 0 0 min 0,000 mm 0 W/m 11,4 C 19,4 C 5,1 km/h (1 Bft) 0,00 %
19.07.2014 06:45 19,4 C 0,0 C 0,0 C 60 % 0 cb 1013,5 hPa 0,0 l/m 1,5 km/h (1 Bft) S-SW 210 0 min 0,000 mm 0 W/m 11,4 C 19,4 C 1,5 km/h (1 Bft) 0,00 %
19.07.2014 06:50 19,3 C 0,0 C 0,0 C 61 % 0 cb 1014,5 hPa 0,0 l/m 0,0 km/h (0 Bft) SO 145 0 min 0,000 mm 0 W/m 11,6 C 19,3 C 0,0 km/h (0 Bft) 0,00 %
19.07.2014 06:55 19,0 C 0,0 C 0,0 C 62 % 0 cb 1014,5 hPa 0,0 l/m 0,0 km/h (0 Bft) N-NW 340 0 min 0,000 mm 0 W/m 11,6 C 19,0 C 0,0 km/h (0 Bft) 0,00 %
19.07.2014 07:00 19,5 C 0,0 C 0,0 C 61 % 0 cb 1014,5 hPa 0,0 l/m 3,0 km/h (1 Bft) N 5 0 min 0,000 mm 0 W/m 11,8 C 19,5 C 3,0 km/h (1 Bft) 0,00 %
19.07.2014 07:05 19,7 C 0,0 C 0,0 C 60 % 0 cb 1013,5 hPa 0,0 l/m 4,2 km/h (1 Bft) N 10 0 min 0,000 mm 0 W/m 11,7 C 19,7 C 4,2 km/h (1 Bft) 0,00 %
19.07.2014 07:10 20,0 C 0,0 C 0,0 C 60 % 0 cb 1013,5 hPa 0,0 l/m 5,7 km/h (1 Bft) N 5 0 min 0,000 mm 0 W/m 12,0 C 20,0 C 5,7 km/h (1 Bft) 0,00 %
19.07.2014 07:15 20,4 C 0,0 C 0,0 C 60 % 2 cb 1013,5 hPa 0,0 l/m 3,0 km/h (1 Bft) O-NO 65 0 min 0,000 mm 0 W/m 12,4 C 20,4 C 3,0 km/h (1 Bft) 0,00 %
19.07.2014 07:20 20,9 C 0,0 C 0,0 C 59 % 5 cb 1013,5 hPa 0,0 l/m 5,4 km/h (1 Bft) N 5 0 min 0,000 mm 0 W/m 12,6 C 20,9 C 5,4 km/h (1 Bft) 0,00 %
19.07.2014 07:25 20,8 C 0,0 C 0,0 C 59 % 6 cb 1013,5 hPa 0,0 l/m 6,1 km/h (2 Bft) NO 50 0 min 0,000 mm 0 W/m 12,5 C 20,8 C 6,1 km/h (2 Bft) 0,00 %
19.07.2014 07:30 20,9 C 0,0 C 0,0 C 59 % 4 cb 1013,5 hPa 0,0 l/m 3,6 km/h (1 Bft) N 350 0 min 0,000 mm 0 W/m 12,6 C 20,9 C 3,6 km/h (1 Bft) 0,00 %
19.07.2014 07:35 21,2 C 0,0 C 0,0 C 58 % 6 cb 1013,5 hPa 0,0 l/m 3,3 km/h (1 Bft) N 5 0 min 0,000 mm 0 W/m 12,6 C 21,2 C 3,3 km/h (1 Bft) 0,00 %
19.07.2014 07:40 21,3 C 0,0 C 0,0 C 58 % 5 cb 1013,5 hPa 0,0 l/m 6,1 km/h (2 Bft) N-NW 345 0 min 0,000 mm 0 W/m 12,7 C 21,3 C 6,1 km/h (2 Bft) 0,00 %
19.07.2014 07:45 21,4 C 0,0 C 0,0 C 59 % 6 cb 1013,5 hPa 0,0 l/m 6,7 km/h (2 Bft) N-NO 15 0 min 0,000 mm 0 W/m 13,0 C 21,4 C 6,7 km/h (2 Bft) 0,00 %
19.07.2014 07:50 21,4 C 0,0 C 0,0 C 59 % 4 cb 1013,5 hPa 0,0 l/m 5,7 km/h (1 Bft) W 280 0 min 0,000 mm 0 W/m 13,0 C 21,4 C 5,7 km/h (1 Bft) 0,00 %
19.07.2014 07:55 21,6 C 0,0 C 0,0 C 58 % 5 cb 1013,5 hPa 0,0 l/m 8,5 km/h (2 Bft) N-NO 15 0 min 0,000 mm 0 W/m 13,0 C 21,6 C 8,5 km/h (2 Bft) 0,00 %
19.07.2014 08:00 21,8 C 0,0 C 0,0 C 58 % 5 cb 1013,5 hPa 0,0 l/m 7,9 km/h (2 Bft) SW 230 0 min 0,000 mm 0 W/m 13,2 C 21,8 C 7,9 km/h (2 Bft) 0,00 %
19.07.2014 08:05 22,1 C 0,0 C 0,0 C 58 % 5 cb 1013,5 hPa 0,0 l/m 6,7 km/h (2 Bft) NO 50 0 min 0,000 mm 0 W/m 13,4 C 22,1 C 6,7 km/h (2 Bft) 0,00 %
19.07.2014 08:10 22,6 C 0,0 C 0,0 C 58 % 5 cb 1013,5 hPa 0,0 l/m 3,3 km/h (1 Bft) NO 35 0 min 0,000 mm 0 W/m 13,9 C 22,6 C 3,3 km/h (1 Bft) 0,00 %
19.07.2014 08:15 22,9 C 0,0 C 0,0 C 57 % 6 cb 1013,5 hPa 0,0 l/m 2,1 km/h (1 Bft) N-NW 340 0 min 0,000 mm 0 W/m 13,9 C 22,9 C 2,1 km/h (1 Bft) 0,00 %
19.07.2014 08:20 23,0 C 0,0 C 0,0 C 56 % 3 cb 1013,5 hPa 0,0 l/m 3,0 km/h (1 Bft) N-NW 345 0 min 0,000 mm 0 W/m 13,7 C 23,0 C 3,0 km/h (1 Bft) 0,00 %
19.07.2014 08:25 23,2 C 0,0 C 0,0 C 56 % 7 cb 1013,5 hPa 0,0 l/m 2,1 km/h (1 Bft) NO 45 0 min 0,000 mm 0 W/m 13,9 C 23,2 C 2,1 km/h (1 Bft) 0,00 %
19.07.2014 08:30 23,2 C 0,0 C 0,0 C 56 % 3 cb 1013,5 hPa 0,0 l/m 6,1 km/h (2 Bft) N-NO 20 0 min 0,000 mm 0 W/m 13,9 C 23,2 C 6,1 km/h (2 Bft) 0,00 %
19.07.2014 08:35 23,7 C 0,0 C 0,0 C 56 % 7 cb 1013,5 hPa 0,0 l/m 3,9 km/h (1 Bft) N 10 0 min 0,000 mm 0 W/m 14,4 C 23,7 C 3,9 km/h (1 Bft) 0,00 %
19.07.2014 08:40 23,9 C 0,0 C 0,0 C 56 % 3 cb 1013,5 hPa 0,0 l/m 4,8 km/h (1 Bft) W 280 0 min 0,000 mm 0 W/m 14,6 C 23,9 C 4,8 km/h (1 Bft) 0,00 %
19.07.2014 08:45 24,3 C 0,0 C 0,0 C 56 % 5 cb 1013,5 hPa 0,0 l/m 4,8 km/h (1 Bft) O-NO 60 0 min 0,000 mm 0 W/m 14,9 C 24,3 C 4,8 km/h (1 Bft) 0,00 %
19.07.2014 08:50 24,5 C 0,0 C 0,0 C 56 % 5 cb 1012,5 hPa 0,0 l/m 4,8 km/h (1 Bft) NW 310 0 min 0,000 mm 0 W/m 15,1 C 24,5 C 4,8 km/h (1 Bft) 0,00 %
19.07.2014 08:55 24,4 C 0,0 C 0,0 C 56 % 5 cb 1012,5 hPa 0,0 l/m 0,6 km/h (0 Bft) NW 320 0 min 0,000 mm 0 W/m 15,0 C 24,4 C 0,6 km/h (0 Bft) 0,00 %
19.07.2014 09:00 25,2 C 0,0 C 0,0 C 53 % 5 cb 1012,5 hPa 0,0 l/m 2,7 km/h (1 Bft) O-NO 75 0 min 0,000 mm 0 W/m 14,9 C 25,2 C 2,7 km/h (1 Bft) 0,00 %
19.07.2014 09:05 25,7 C 0,0 C 0,0 C 50 % 5 cb 1012,5 hPa 0,0 l/m 6,7 km/h (2 Bft) O-SO 115 0 min 0,000 mm 0 W/m 14,5 C 25,7 C 6,7 km/h (2 Bft) 0,00 %
19.07.2014 09:10 25,9 C 0,0 C 0,0 C 49 % 5 cb 1012,5 hPa 0,0 l/m 3,9 km/h (1 Bft) O-SO 110 0 min 0,000 mm 0 W/m 14,4 C 25,9 C 3,9 km/h (1 Bft) 0,00 %
19.07.2014 09:15 26,3 C 0,0 C 0,0 C 50 % 5 cb 1012,5 hPa 0,0 l/m 2,7 km/h (1 Bft) O 90 0 min 0,000 mm 0 W/m 15,0 C 26,3 C 2,7 km/h (1 Bft) 0,00 %
19.07.2014 09:20 26,2 C 0,0 C 0,0 C 50 % 5 cb 1012,5 hPa 0,0 l/m 4,8 km/h (1 Bft) SO 140 0 min 0,000 mm 0 W/m 14,9 C 26,2 C 4,8 km/h (1 Bft) 0,00 %
19.07.2014 09:25 26,2 C 0,0 C 0,0 C 47 % 5 cb 1012,5 hPa 0,0 l/m 10,3 km/h (2 Bft) O-NO 60 0 min 0,000 mm 0 W/m 14,0 C 26,2 C 10,3 km/h (2 Bft) 0,00 %
19.07.2014 09:30 26,4 C 0,0 C 0,0 C 47 % 5 cb 1012,5 hPa 0,0 l/m 6,7 km/h (2 Bft) NO 40 0 min 0,000 mm 0 W/m 14,2 C 26,4 C 6,7 km/h (2 Bft) 0,00 %
19.07.2014 09:35 26,6 C 0,0 C 0,0 C 47 % 5 cb 1013,5 hPa 0,0 l/m 9,4 km/h (2 Bft) O 95 0 min 0,000 mm 0 W/m 14,3 C 26,6 C 9,4 km/h (2 Bft) 0,00 %
19.07.2014 09:40 26,4 C 0,0 C 0,0 C 48 % 5 cb 1013,5 hPa 0,0 l/m 10,3 km/h (2 Bft) W 280 0 min 0,000 mm 0 W/m 14,5 C 26,4 C 10,3 km/h (2 Bft) 0,00 %
19.07.2014 09:45 26,6 C 0,0 C 0,0 C 46 % 5 cb 1013,5 hPa 0,0 l/m 11,5 km/h (2 Bft) N 355 0 min 0,000 mm 0 W/m 14,0 C 26,6 C 11,5 km/h (2 Bft) 0,00 %
19.07.2014 09:50 27,0 C 0,0 C 0,0 C 46 % 5 cb 1012,5 hPa 0,0 l/m 8,8 km/h (2 Bft) NO 55 0 min 0,000 mm 0 W/m 14,4 C 27,0 C 8,8 km/h (2 Bft) 0,00 %
19.07.2014 09:55 27,2 C 0,0 C 0,0 C 46 % 5 cb 1012,5 hPa 0,0 l/m 7,6 km/h (2 Bft) N 355 0 min 0,000 mm 0 W/m 14,6 C 27,2 C 7,6 km/h (2 Bft) 0,00 %
19.07.2014 10:00 27,3 C 0,0 C 0,0 C 46 % 6 cb 1012,5 hPa 0,0 l/m 9,7 km/h (2 Bft) S 185 0 min 0,000 mm 0 W/m 14,6 C 27,3 C 9,7 km/h (2 Bft) 0,00 %
19.07.2014 10:05 27,2 C 0,0 C 0,0 C 45 % 5 cb 1012,5 hPa 0,0 l/m 11,5 km/h (2 Bft) N-NW 335 0 min 0,000 mm 0 W/m 14,2 C 27,2 C 11,5 km/h (2 Bft) 0,00 %
19.07.2014 10:10 27,4 C 0,0 C 0,0 C 46 % 5 cb 1012,5 hPa 0,0 l/m 8,2 km/h (2 Bft) O-NO 60 0 min 0,000 mm 0 W/m 14,7 C 27,4 C 8,2 km/h (2 Bft) 0,00 %
19.07.2014 10:15 27,6 C 0,0 C 0,0 C 45 % 5 cb 1012,5 hPa 0,0 l/m 9,1 km/h (2 Bft) O 80 0 min 0,000 mm 0 W/m 14,6 C 27,6 C 9,1 km/h (2 Bft) 0,00 %
19.07.2014 10:20 27,5 C 0,0 C 0,0 C 45 % 5 cb 1012,5 hPa 0,0 l/m 10,0 km/h (2 Bft) N-NO 25 0 min 0,000 mm 0 W/m 14,5 C 27,5 C 10,0 km/h (2 Bft) 0,00 %
19.07.2014 10:25 28,2 C 0,0 C 0,0 C 45 % 5 cb 1012,5 hPa 0,0 l/m 4,8 km/h (1 Bft) N-NO 15 0 min 0,000 mm 0 W/m 15,1 C 28,2 C 4,8 km/h (1 Bft) 0,00 %
19.07.2014 10:30 28,5 C 0,0 C 0,0 C 44 % 5 cb 1012,5 hPa 0,0 l/m 6,7 km/h (2 Bft) N-NO 15 0 min 0,000 mm 0 W/m 15,0 C 28,5 C 6,7 km/h (2 Bft) 0,00 %
19.07.2014 10:35 28,4 C 0,0 C 0,0 C 44 % 5 cb 1012,5 hPa 0,0 l/m 10,6 km/h (2 Bft) O-SO 115 0 min 0,000 mm 0 W/m 14,9 C 28,4 C 10,6 km/h (2 Bft) 0,00 %
19.07.2014 10:40 28,6 C 0,0 C 0,0 C 45 % 5 cb 1012,5 hPa 0,0 l/m 7,3 km/h (2 Bft) NW 320 0 min 0,000 mm 0 W/m 15,5 C 28,6 C 7,3 km/h (2 Bft) 0,00 %
19.07.2014 10:45 29,1 C 0,0 C 0,0 C 43 % 5 cb 1012,5 hPa 0,0 l/m 8,2 km/h (2 Bft) O 100 0 min 0,000 mm 0 W/m 15,2 C 29,1 C 8,2 km/h (2 Bft) 0,00 %
19.07.2014 10:50 29,1 C 0,0 C 0,0 C 44 % 5 cb 1012,5 hPa 0,0 l/m 8,5 km/h (2 Bft) O-NO 60 0 min 0,000 mm 0 W/m 15,6 C 29,1 C 8,5 km/h (2 Bft) 0,00 %
19.07.2014 10:55 29,4 C 0,0 C 0,0 C 43 % 5 cb 1012,5 hPa 0,0 l/m 7,6 km/h (2 Bft) S 175 0 min 0,000 mm 0 W/m 15,5 C 29,4 C 7,6 km/h (2 Bft) 0,00 %
19.07.2014 11:00 29,6 C 0,0 C 0,0 C 42 % 5 cb 1012,5 hPa 0,0 l/m 8,5 km/h (2 Bft) W 270 0 min 0,000 mm 0 W/m 15,3 C 29,6 C 8,5 km/h (2 Bft) 0,00 %
19.07.2014 11:05 29,7 C 0,0 C 0,0 C 42 % 5 cb 1012,5 hPa 0,0 l/m 13,3 km/h (3 Bft) S 185 0 min 0,000 mm 0 W/m 15,4 C 29,7 C 13,3 km/h (3 Bft) 0,00 %
19.07.2014 11:10 29,6 C 0,0 C 0,0 C 40 % 5 cb 1012,5 hPa 0,0 l/m 11,8 km/h (2 Bft) NO 50 0 min 0,000 mm 0 W/m 14,5 C 29,6 C 11,8 km/h (2 Bft) 0,00 %
19.07.2014 11:15 29,6 C 0,0 C 0,0 C 41 % 6 cb 1012,5 hPa 0,0 l/m 10,3 km/h (2 Bft) S-SW 205 0 min 0,000 mm 0 W/m 14,9 C 29,6 C 10,3 km/h (2 Bft) 0,00 %
19.07.2014 11:20 29,6 C 0,0 C 0,0 C 41 % 5 cb 1012,5 hPa 0,0 l/m 14,5 km/h (3 Bft) O-SO 115 0 min 0,000 mm 0 W/m 14,9 C 29,6 C 14,5 km/h (3 Bft) 0,00 %
19.07.2014 11:25 29,7 C 0,0 C 0,0 C 42 % 4 cb 1012,5 hPa 0,0 l/m 9,1 km/h (2 Bft) N-NW 345 0 min 0,000 mm 0 W/m 15,4 C 29,7 C 9,1 km/h (2 Bft) 0,00 %
19.07.2014 11:30 29,8 C 0,0 C 0,0 C 42 % 3 cb 1012,5 hPa 0,0 l/m 9,7 km/h (2 Bft) O-NO 65 0 min 0,000 mm 0 W/m 15,5 C 29,8 C 9,7 km/h (2 Bft) 0,00 %
19.07.2014 11:35 30,3 C 0,0 C 0,0 C 42 % 8 cb 1012,5 hPa 0,0 l/m 10,3 km/h (2 Bft) N 0 0 min 0,000 mm 0 W/m 15,9 C 30,3 C 10,3 km/h (2 Bft) 0,00 %
19.07.2014 11:40 30,0 C 0,0 C 0,0 C 41 % 3 cb 1012,5 hPa 0,0 l/m 14,5 km/h (3 Bft) N-NW 330 0 min 0,000 mm 0 W/m 15,3 C 30,0 C 14,5 km/h (3 Bft) 0,00 %
19.07.2014 11:45 30,3 C 0,0 C 0,0 C 40 % 5 cb 1012,5 hPa 0,0 l/m 7,9 km/h (2 Bft) S-SW 205 0 min 0,000 mm 0 W/m 15,2 C 30,3 C 7,9 km/h (2 Bft) 0,00 %
19.07.2014 11:50 30,1 C 0,0 C 0,0 C 40 % 5 cb 1012,5 hPa 0,0 l/m 9,1 km/h (2 Bft) SO 135 0 min 0,000 mm 0 W/m 15,0 C 30,1 C 9,1 km/h (2 Bft) 0,00 %
19.07.2014 11:55 30,3 C 0,0 C 0,0 C 41 % 6 cb 1012,5 hPa 0,0 l/m 10,0 km/h (2 Bft) S 175 0 min 0,000 mm 0 W/m 15,6 C 30,3 C 10,0 km/h (2 Bft) 0,00 %
19.07.2014 12:00 30,4 C 0,0 C 0,0 C 40 % 4 cb 1012,5 hPa 0,0 l/m 11,2 km/h (2 Bft) S-SW 210 0 min 0,000 mm 0 W/m 15,3 C 30,4 C 11,2 km/h (2 Bft) 0,00 %
19.07.2014 12:05 30,8 C 0,0 C 0,0 C 39 % 6 cb 1012,5 hPa 0,0 l/m 11,5 km/h (2 Bft) O-SO 105 0 min 0,000 mm 0 W/m 15,2 C 30,8 C 11,5 km/h (2 Bft) 0,00 %
19.07.2014 12:10 31,0 C 0,0 C 0,0 C 38 % 5 cb 1012,5 hPa 0,0 l/m 9,1 km/h (2 Bft) N 5 0 min 0,000 mm 0 W/m 15,0 C 31,0 C 9,1 km/h (2 Bft) 0,00 %
19.07.2014 12:15 31,0 C 0,0 C 0,0 C 37 % 5 cb 1012,5 hPa 0,0 l/m 10,0 km/h (2 Bft) SO 145 0 min 0,000 mm 0 W/m 14,6 C 31,0 C 10,0 km/h (2 Bft) 0,00 %
19.07.2014 12:20 31,4 C 0,0 C 0,0 C 37 % 5 cb 1012,5 hPa 0,0 l/m 9,4 km/h (2 Bft) O 85 0 min 0,000 mm 0 W/m 14,9 C 31,4 C 9,4 km/h (2 Bft) 0,00 %
19.07.2014 12:25 31,3 C 0,0 C 0,0 C 36 % 5 cb 1012,5 hPa 0,0 l/m 10,0 km/h (2 Bft) O 90 0 min 0,000 mm 0 W/m 14,4 C 31,3 C 10,0 km/h (2 Bft) 0,00 %
19.07.2014 12:30 31,8 C 0,0 C 0,0 C 37 % 5 cb 1012,5 hPa 0,0 l/m 3,6 km/h (1 Bft) SW 225 0 min 0,000 mm 0 W/m 15,3 C 31,8 C 3,6 km/h (1 Bft) 0,00 %
19.07.2014 12:35 31,5 C 0,0 C 0,0 C 35 % 4 cb 1012,5 hPa 0,0 l/m 9,7 km/h (2 Bft) O-NO 65 0 min 0,000 mm 0 W/m 14,2 C 31,5 C 9,7 km/h (2 Bft) 0,00 %
19.07.2014 12:40 31,7 C 0,0 C 0,0 C 36 % 6 cb 1012,5 hPa 0,0 l/m 7,3 km/h (2 Bft) O-SO 105 0 min 0,000 mm 0 W/m 14,8 C 31,7 C 7,3 km/h (2 Bft) 0,00 %
19.07.2014 12:45 31,7 C 0,0 C 0,0 C 35 % 4 cb 1012,5 hPa 0,0 l/m 16,6 km/h (3 Bft) N 0 0 min 0,000 mm 0 W/m 14,3 C 31,7 C 16,6 km/h (3 Bft) 0,00 %
19.07.2014 12:50 31,6 C 0,0 C 0,0 C 35 % 6 cb 1011,5 hPa 0,0 l/m 16,9 km/h (3 Bft) O-SO 115 0 min 0,000 mm 0 W/m 14,2 C 31,6 C 16,9 km/h (3 Bft) 0,00 %
19.07.2014 12:55 31,8 C 0,0 C 0,0 C 35 % 5 cb 1011,5 hPa 0,0 l/m 11,2 km/h (2 Bft) SO 140 0 min 0,000 mm 0 W/m 14,4 C 31,8 C 11,2 km/h (2 Bft) 0,00 %
19.07.2014 13:00 31,6 C 0,0 C 0,0 C 33 % 5 cb 1011,5 hPa 0,0 l/m 14,5 km/h (3 Bft) O 80 0 min 0,000 mm 0 W/m 13,3 C 31,6 C 14,5 km/h (3 Bft) 0,00 %
19.07.2014 13:05 31,5 C 0,0 C 0,0 C 33 % 5 cb 1011,5 hPa 0,0 l/m 11,8 km/h (2 Bft) S 190 0 min 0,000 mm 0 W/m 13,2 C 31,5 C 11,8 km/h (2 Bft) 0,00 %
19.07.2014 13:10 31,5 C 0,0 C 0,0 C 32 % 6 cb 1011,5 hPa 0,0 l/m 9,1 km/h (2 Bft) S-SO 155 0 min 0,000 mm 0 W/m 12,8 C 31,5 C 9,1 km/h (2 Bft) 0,00 %
19.07.2014 13:15 31,8 C 0,0 C 0,0 C 33 % 4 cb 1011,5 hPa 0,0 l/m 15,1 km/h (3 Bft) S-SW 205 0 min 0,000 mm 0 W/m 13,5 C 31,8 C 15,1 km/h (3 Bft) 0,00 %
19.07.2014 13:20 32,0 C 0,0 C 0,0 C 33 % 6 cb 1012,5 hPa 0,0 l/m 10,3 km/h (2 Bft) O 80 0 min 0,000 mm 0 W/m 13,7 C 32,0 C 10,3 km/h (2 Bft) 0,00 %
19.07.2014 13:25 31,7 C 0,0 C 0,0 C 33 % 4 cb 1012,5 hPa 0,0 l/m 9,7 km/h (2 Bft) O-NO 75 0 min 0,000 mm 0 W/m 13,4 C 31,7 C 9,7 km/h (2 Bft) 0,00 %
19.07.2014 13:30 31,4 C 0,0 C 0,0 C 34 % 6 cb 1012,5 hPa 0,0 l/m 14,5 km/h (3 Bft) SO 130 0 min 0,000 mm 0 W/m 13,6 C 31,4 C 14,5 km/h (3 Bft) 0,00 %
19.07.2014 13:35 31,5 C 0,0 C 0,0 C 34 % 5 cb 1011,5 hPa 0,0 l/m 10,9 km/h (2 Bft) NO 45 0 min 0,000 mm 0 W/m 13,7 C 31,5 C 10,9 km/h (2 Bft) 0,00 %
19.07.2014 13:40 31,9 C 0,0 C 0,0 C 34 % 5 cb 1011,5 hPa 0,0 l/m 6,7 km/h (2 Bft) S-SO 160 0 min 0,000 mm 0 W/m 14,1 C 31,9 C 6,7 km/h (2 Bft) 0,00 %
19.07.2014 13:45 32,1 C 0,0 C 0,0 C 34 % 5 cb 1011,5 hPa 0,0 l/m 13,9 km/h (3 Bft) S-SW 210 0 min 0,000 mm 0 W/m 14,2 C 32,1 C 13,9 km/h (3 Bft) 0,00 %
19.07.2014 13:50 31,9 C 0,0 C 0,0 C 34 % 5 cb 1011,5 hPa 0,0 l/m 8,8 km/h (2 Bft) SO 145 0 min 0,000 mm 0 W/m 14,1 C 31,9 C 8,8 km/h (2 Bft) 0,00 %
19.07.2014 13:55 32,2 C 0,0 C 0,0 C 33 % 6 cb 1011,5 hPa 0,0 l/m 13,9 km/h (3 Bft) S-SW 205 0 min 0,000 mm 0 W/m 13,9 C 32,2 C 13,9 km/h (3 Bft) 0,00 %
19.07.2014 14:00 32,6 C 0,0 C 0,0 C 33 % 4 cb 1011,5 hPa 0,0 l/m 5,4 km/h (1 Bft) S-SO 160 0 min 0,000 mm 0 W/m 14,2 C 32,6 C 5,4 km/h (1 Bft) 0,00 %
19.07.2014 14:05 32,5 C 0,0 C 0,0 C 33 % 5 cb 1011,5 hPa 0,0 l/m 8,5 km/h (2 Bft) SO 125 0 min 0,000 mm 0 W/m 14,1 C 32,5 C 8,5 km/h (2 Bft) 0,00 %
19.07.2014 14:10 32,2 C 0,0 C 0,0 C 34 % 3 cb 1011,5 hPa 0,0 l/m 8,5 km/h (2 Bft) S-SO 150 0 min 0,000 mm 0 W/m 14,3 C 32,2 C 8,5 km/h (2 Bft) 0,00 %
19.07.2014 14:15 32,3 C 0,0 C 0,0 C 35 % 8 cb 1011,5 hPa 0,0 l/m 8,2 km/h (2 Bft) W 275 0 min 0,000 mm 0 W/m 14,9 C 32,3 C 8,2 km/h (2 Bft) 0,00 %
19.07.2014 14:20 32,4 C 0,0 C 0,0 C 33 % 4 cb 1011,5 hPa 0,0 l/m 11,8 km/h (2 Bft) S-SW 210 0 min 0,000 mm 0 W/m 14,0 C 32,4 C 11,8 km/h (2 Bft) 0,00 %
19.07.2014 14:25 31,8 C 0,0 C 0,0 C 33 % 5 cb 1011,5 hPa 0,0 l/m 15,1 km/h (3 Bft) W-SW 245 0 min 0,000 mm 0 W/m 13,5 C 31,8 C 15,1 km/h (3 Bft) 0,00 %
19.07.2014 14:30 32,2 C 0,0 C 0,0 C 34 % 5 cb 1011,5 hPa 0,0 l/m 11,2 km/h (2 Bft) SO 125 0 min 0,000 mm 0 W/m 14,3 C 32,2 C 11,2 km/h (2 Bft) 0,00 %
19.07.2014 14:35 33,6 C 0,0 C 0,0 C 33 % 5 cb 1011,5 hPa 0,0 l/m 6,4 km/h (2 Bft) SO 125 0 min 0,000 mm 0 W/m 15,1 C 33,6 C 6,4 km/h (2 Bft) 0,00 %
19.07.2014 14:40 33,7 C 0,0 C 0,0 C 34 % 5 cb 1011,5 hPa 0,0 l/m 4,8 km/h (1 Bft) O 90 0 min 0,000 mm 0 W/m 15,6 C 33,7 C 4,8 km/h (1 Bft) 0,00 %
19.07.2014 14:45 33,5 C 0,0 C 0,0 C 34 % 6 cb 1011,5 hPa 0,0 l/m 10,6 km/h (2 Bft) N-NW 345 0 min 0,000 mm 0 W/m 15,4 C 33,5 C 10,6 km/h (2 Bft) 0,00 %
19.07.2014 14:50 33,6 C 0,0 C 0,0 C 34 % 2 cb 1011,5 hPa 0,0 l/m 8,5 km/h (2 Bft) O-NO 70 0 min 0,000 mm 0 W/m 15,5 C 33,6 C 8,5 km/h (2 Bft) 0,00 %
19.07.2014 14:55 32,7 C 0,0 C 0,0 C 34 % 7 cb 1011,5 hPa 0,0 l/m 7,6 km/h (2 Bft) S 190 0 min 0,000 mm 0 W/m 14,8 C 32,7 C 7,6 km/h (2 Bft) 0,00 %
19.07.2014 15:00 32,8 C 0,0 C 0,0 C 34 % 3 cb 1011,5 hPa 0,0 l/m 6,1 km/h (2 Bft) S 175 0 min 0,000 mm 0 W/m 14,8 C 32,8 C 6,1 km/h (2 Bft) 0,00 %
19.07.2014 15:05 32,6 C 0,0 C 0,0 C 33 % 8 cb 1011,5 hPa 0,0 l/m 10,3 km/h (2 Bft) S 175 0 min 0,000 mm 0 W/m 14,2 C 32,6 C 10,3 km/h (2 Bft) 0,00 %
19.07.2014 15:10 33,2 C 0,0 C 0,0 C 32 % 3 cb 1011,5 hPa 0,0 l/m 7,6 km/h (2 Bft) SO 140 0 min 0,000 mm 0 W/m 14,2 C 33,2 C 7,6 km/h (2 Bft) 0,00 %
19.07.2014 15:15 32,8 C 0,0 C 0,0 C 32 % 5 cb 1011,5 hPa 0,0 l/m 13,9 km/h (3 Bft) S 185 0 min 0,000 mm 0 W/m 13,9 C 32,8 C 13,9 km/h (3 Bft) 0,00 %
19.07.2014 15:20 32,6 C 0,0 C 0,0 C 33 % 4 cb 1011,5 hPa 0,0 l/m 6,7 km/h (2 Bft) S 175 0 min 0,000 mm 0 W/m 14,2 C 32,6 C 6,7 km/h (2 Bft) 0,00 %
19.07.2014 15:25 32,5 C 0,0 C 0,0 C 32 % 6 cb 1011,5 hPa 0,0 l/m 8,8 km/h (2 Bft) S-SO 150 0 min 0,000 mm 0 W/m 13,6 C 32,5 C 8,8 km/h (2 Bft) 0,00 %
19.07.2014 15:30 32,2 C 0,0 C 0,0 C 33 % 4 cb 1011,5 hPa 0,0 l/m 8,2 km/h (2 Bft) O 80 0 min 0,000 mm 0 W/m 13,9 C 32,2 C 8,2 km/h (2 Bft) 0,00 %
19.07.2014 15:35 32,2 C 0,0 C 0,0 C 33 % 6 cb 1011,5 hPa 0,0 l/m 6,7 km/h (2 Bft) SO 145 0 min 0,000 mm 0 W/m 13,9 C 32,2 C 6,7 km/h (2 Bft) 0,00 %
19.07.2014 15:40 31,7 C 0,0 C 0,0 C 34 % 5 cb 1011,5 hPa 0,0 l/m 9,4 km/h (2 Bft) S 185 0 min 0,000 mm 0 W/m 13,9 C 31,7 C 9,4 km/h (2 Bft) 0,00 %
19.07.2014 15:45 31,3 C 0,0 C 0,0 C 34 % 5 cb 1011,5 hPa 0,0 l/m 12,4 km/h (3 Bft) S 170 0 min 0,000 mm 0 W/m 13,5 C 31,3 C 12,4 km/h (3 Bft) 0,00 %
19.07.2014 15:50 31,2 C 0,0 C 0,0 C 34 % 5 cb 1011,5 hPa 0,0 l/m 13,3 km/h (3 Bft) S 175 0 min 0,000 mm 0 W/m 13,4 C 31,2 C 13,3 km/h (3 Bft) 0,00 %
19.07.2014 15:55 31,4 C 0,0 C 0,0 C 35 % 5 cb 1011,5 hPa 0,0 l/m 12,4 km/h (3 Bft) S-SO 155 0 min 0,000 mm 0 W/m 14,1 C 31,4 C 12,4 km/h (3 Bft) 0,00 %
19.07.2014 16:00 31,6 C 0,0 C 0,0 C 35 % 5 cb 1011,5 hPa 0,0 l/m 8,2 km/h (2 Bft) SO 145 0 min 0,000 mm 0 W/m 14,2 C 31,6 C 8,2 km/h (2 Bft) 0,00 %
19.07.2014 16:05 32,3 C 0,0 C 0,0 C 37 % 6 cb 1011,5 hPa 0,0 l/m 7,6 km/h (2 Bft) S-SW 205 0 min 0,000 mm 0 W/m 15,7 C 32,3 C 7,6 km/h (2 Bft) 0,00 %
19.07.2014 16:10 32,2 C 0,0 C 0,0 C 34 % 5 cb 1011,5 hPa 0,0 l/m 10,9 km/h (2 Bft) SW 225 0 min 0,000 mm 0 W/m 14,3 C 32,2 C 10,9 km/h (2 Bft) 0,00 %
19.07.2014 16:15 32,3 C 0,0 C 0,0 C 36 % 5 cb 1011,5 hPa 0,0 l/m 12,7 km/h (3 Bft) SW 230 0 min 0,000 mm 0 W/m 15,3 C 32,3 C 12,7 km/h (3 Bft) 0,00 %
19.07.2014 16:20 31,4 C 0,0 C 0,0 C 35 % 6 cb 1011,5 hPa 0,0 l/m 10,6 km/h (2 Bft) S-SO 155 0 min 0,000 mm 0 W/m 14,1 C 31,4 C 10,6 km/h (2 Bft) 0,00 %
19.07.2014 16:25 31,6 C 0,0 C 0,0 C 35 % 4 cb 1011,5 hPa 0,0 l/m 10,0 km/h (2 Bft) S-SO 155 0 min 0,000 mm 0 W/m 14,2 C 31,6 C 10,0 km/h (2 Bft) 0,00 %
19.07.2014 16:30 32,0 C 0,0 C 0,0 C 36 % 6 cb 1011,5 hPa 0,0 l/m 11,5 km/h (2 Bft) W 260 0 min 0,000 mm 0 W/m 15,0 C 32,0 C 11,5 km/h (2 Bft) 0,00 %
19.07.2014 16:35 31,8 C 0,0 C 0,0 C 36 % 5 cb 1011,5 hPa 0,0 l/m 8,8 km/h (2 Bft) S-SW 195 0 min 0,000 mm 0 W/m 14,9 C 31,8 C 8,8 km/h (2 Bft) 0,00 %
19.07.2014 16:40 31,0 C 0,0 C 0,0 C 37 % 5 cb 1011,5 hPa 0,0 l/m 13,3 km/h (3 Bft) S-SO 165 0 min 0,000 mm 0 W/m 14,6 C 31,0 C 13,3 km/h (3 Bft) 0,00 %
19.07.2014 16:45 31,1 C 0,0 C 0,0 C 37 % 5 cb 1011,5 hPa 0,0 l/m 8,2 km/h (2 Bft) S-SO 155 0 min 0,000 mm 0 W/m 14,7 C 31,1 C 8,2 km/h (2 Bft) 0,00 %
19.07.2014 16:50 31,3 C 0,0 C 0,0 C 37 % 5 cb 1011,5 hPa 0,0 l/m 8,5 km/h (2 Bft) S-SO 160 0 min 0,000 mm 0 W/m 14,8 C 31,3 C 8,5 km/h (2 Bft) 0,00 %
19.07.2014 16:55 31,3 C 0,0 C 0,0 C 37 % 5 cb 1011,5 hPa 0,0 l/m 13,3 km/h (3 Bft) SW 235 0 min 0,000 mm 0 W/m 14,8 C 31,3 C 13,3 km/h (3 Bft) 0,00 %
19.07.2014 17:00 31,0 C 0,0 C 0,0 C 37 % 5 cb 1011,5 hPa 0,0 l/m 8,8 km/h (2 Bft) O 95 0 min 0,000 mm 0 W/m 14,6 C 31,0 C 8,8 km/h (2 Bft) 0,00 %
19.07.2014 17:05 31,1 C 0,0 C 0,0 C 38 % 5 cb 1010,5 hPa 0,0 l/m 10,3 km/h (2 Bft) SO 125 0 min 0,000 mm 0 W/m 15,1 C 31,1 C 10,3 km/h (2 Bft) 0,00 %
19.07.2014 17:10 31,4 C 0,0 C 0,0 C 37 % 4 cb 1010,5 hPa 0,0 l/m 13,6 km/h (3 Bft) S 180 0 min 0,000 mm 0 W/m 14,9 C 31,4 C 13,6 km/h (3 Bft) 0,00 %
19.07.2014 17:15 31,4 C 0,0 C 0,0 C 37 % 6 cb 1010,5 hPa 0,0 l/m 10,9 km/h (2 Bft) SO 140 0 min 0,000 mm 0 W/m 14,9 C 31,4 C 10,9 km/h (2 Bft) 0,00 %
19.07.2014 17:20 31,5 C 0,0 C 0,0 C 37 % 5 cb 1011,5 hPa 0,0 l/m 11,5 km/h (2 Bft) S-SW 205 0 min 0,000 mm 0 W/m 15,0 C 31,5 C 11,5 km/h (2 Bft) 0,00 %
19.07.2014 17:25 31,2 C 0,0 C 0,0 C 34 % 5 cb 1011,5 hPa 0,0 l/m 12,4 km/h (3 Bft) S-SO 155 0 min 0,000 mm 0 W/m 13,4 C 31,2 C 12,4 km/h (3 Bft) 0,00 %
19.07.2014 17:30 31,5 C 0,0 C 0,0 C 35 % 5 cb 1011,5 hPa 0,0 l/m 12,4 km/h (3 Bft) N 350 0 min 0,000 mm 0 W/m 14,2 C 31,5 C 12,4 km/h (3 Bft) 0,00 %
19.07.2014 17:35 31,6 C 0,0 C 0,0 C 33 % 5 cb 1011,5 hPa 0,0 l/m 10,0 km/h (2 Bft) S-SO 165 0 min 0,000 mm 0 W/m 13,3 C 31,6 C 10,0 km/h (2 Bft) 0,00 %
19.07.2014 17:40 31,5 C 0,0 C 0,0 C 33 % 5 cb 1011,5 hPa 0,0 l/m 12,7 km/h (3 Bft) S-SO 155 0 min 0,000 mm 0 W/m 13,2 C 31,5 C 12,7 km/h (3 Bft) 0,00 %
19.07.2014 17:45 31,1 C 0,0 C 0,0 C 34 % 5 cb 1011,5 hPa 0,0 l/m 13,3 km/h (3 Bft) S-SO 155 0 min 0,000 mm 0 W/m 13,4 C 31,1 C 13,3 km/h (3 Bft) 0,00 %
19.07.2014 17:50 31,1 C 0,0 C 0,0 C 34 % 3 cb 1010,5 hPa 0,0 l/m 9,1 km/h (2 Bft) SO 145 0 min 0,000 mm 0 W/m 13,4 C 31,1 C 9,1 km/h (2 Bft) 0,00 %
19.07.2014 17:55 31,1 C 0,0 C 0,0 C 35 % 7 cb 1010,5 hPa 0,0 l/m 9,7 km/h (2 Bft) W 270 0 min 0,000 mm 0 W/m 13,8 C 31,1 C 9,7 km/h (2 Bft) 0,00 %
19.07.2014 18:00 31,0 C 0,0 C 0,0 C 35 % 3 cb 1010,5 hPa 0,0 l/m 12,1 km/h (2 Bft) W 260 0 min 0,000 mm 0 W/m 13,7 C 31,0 C 12,1 km/h (2 Bft) 0,00 %
19.07.2014 18:05 30,8 C 0,0 C 0,0 C 37 % 6 cb 1010,5 hPa 0,0 l/m 8,5 km/h (2 Bft) W 265 0 min 0,000 mm 0 W/m 14,4 C 30,8 C 8,5 km/h (2 Bft) 0,00 %
19.07.2014 18:10 31,2 C 0,0 C 0,0 C 37 % 3 cb 1010,5 hPa 0,0 l/m 9,4 km/h (2 Bft) W 280 0 min 0,000 mm 0 W/m 14,8 C 31,2 C 9,4 km/h (2 Bft) 0,00 %
19.07.2014 18:15 30,7 C 0,0 C 0,0 C 37 % 4 cb 1010,5 hPa 0,0 l/m 10,9 km/h (2 Bft) W-SW 240 0 min 0,000 mm 0 W/m 14,3 C 30,7 C 10,9 km/h (2 Bft) 0,00 %
19.07.2014 18:20 30,7 C 0,0 C 0,0 C 37 % 3 cb 1010,5 hPa 0,0 l/m 11,8 km/h (2 Bft) S-SW 195 0 min 0,000 mm 0 W/m 14,3 C 30,7 C 11,8 km/h (2 Bft) 0,00 %
19.07.2014 18:25 30,6 C 0,0 C 0,0 C 37 % 5 cb 1010,5 hPa 0,0 l/m 9,4 km/h (2 Bft) NW 325 0 min 0,000 mm 0 W/m 14,2 C 30,6 C 9,4 km/h (2 Bft) 0,00 %
19.07.2014 18:30 29,7 C 0,0 C 0,0 C 38 % 0 cb 1010,5 hPa 0,0 l/m 8,8 km/h (2 Bft) S 175 0 min 0,000 mm 0 W/m 13,8 C 29,7 C 8,8 km/h (2 Bft) 0,00 %
19.07.2014 18:35 29,2 C 0,0 C 0,0 C 39 % 0 cb 1011,5 hPa 0,0 l/m 3,9 km/h (1 Bft) S-SO 160 0 min 0,000 mm 0 W/m 13,8 C 29,2 C 3,9 km/h (1 Bft) 0,00 %
19.07.2014 18:40 28,8 C 0,0 C 0,0 C 40 % 0 cb 1011,5 hPa 0,0 l/m 8,5 km/h (2 Bft) S-SO 150 0 min 0,000 mm 0 W/m 13,8 C 28,8 C 8,5 km/h (2 Bft) 0,00 %
19.07.2014 18:45 28,7 C 0,0 C 0,0 C 40 % 0 cb 1011,5 hPa 0,0 l/m 6,1 km/h (2 Bft) S-SW 195 0 min 0,000 mm 0 W/m 13,7 C 28,7 C 6,1 km/h (2 Bft) 0,00 %
19.07.2014 18:50 28,6 C 0,0 C 0,0 C 40 % 0 cb 1010,5 hPa 0,0 l/m 4,8 km/h (1 Bft) S-SW 200 0 min 0,000 mm 0 W/m 13,7 C 28,6 C 4,8 km/h (1 Bft) 0,00 %
19.07.2014 18:55 28,5 C 0,0 C 0,0 C 40 % 0 cb 1010,5 hPa 0,0 l/m 4,2 km/h (1 Bft) S-SO 150 0 min 0,000 mm 0 W/m 13,6 C 28,5 C 4,2 km/h (1 Bft) 0,00 %
19.07.2014 19:00 28,6 C 0,0 C 0,0 C 40 % 0 cb 1010,5 hPa 0,0 l/m 1,5 km/h (1 Bft) S-SW 200 0 min 0,000 mm 0 W/m 13,7 C 28,6 C 1,5 km/h (1 Bft) 0,00 %
19.07.2014 19:05 28,4 C 0,0 C 0,0 C 40 % 0 cb 1010,5 hPa 0,0 l/m 1,8 km/h (1 Bft) SO 130 0 min 0,000 mm 0 W/m 13,5 C 28,4 C 1,8 km/h (1 Bft) 0,00 %
19.07.2014 19:10 28,6 C 0,0 C 0,0 C 40 % 0 cb 1010,5 hPa 0,0 l/m 0,0 km/h (0 Bft) SO 125 0 min 0,000 mm 0 W/m 13,7 C 28,6 C 0,0 km/h (0 Bft) 0,00 %
19.07.2014 19:15 28,6 C 0,0 C 0,0 C 41 % 0 cb 1010,5 hPa 0,0 l/m 0,0 km/h (0 Bft) S-SO 165 0 min 0,000 mm 0 W/m 14,0 C 28,6 C 0,0 km/h (0 Bft) 0,00 %
19.07.2014 19:20 29,0 C 0,0 C 0,0 C 41 % 1 cb 1010,5 hPa 0,0 l/m 0,0 km/h (0 Bft) S 175 0 min 0,000 mm 0 W/m 14,4 C 29,0 C 0,0 km/h (0 Bft) 0,00 %
19.07.2014 19:25 29,2 C 0,0 C 0,0 C 41 % 1 cb 1010,5 hPa 0,0 l/m 0,0 km/h (0 Bft) S 180 0 min 0,000 mm 0 W/m 14,6 C 29,2 C 0,0 km/h (0 Bft) 0,00 %
19.07.2014 19:30 29,0 C 0,0 C 0,0 C 43 % 0 cb 1010,5 hPa 0,0 l/m 4,5 km/h (1 Bft) W 260 0 min 0,000 mm 0 W/m 15,1 C 29,0 C 4,5 km/h (1 Bft) 0,00 %
19.07.2014 19:35 29,0 C 0,0 C 0,0 C 42 % 0 cb 1010,5 hPa 0,0 l/m 3,3 km/h (1 Bft) O 90 0 min 0,000 mm 0 W/m 14,8 C 29,0 C 3,3 km/h (1 Bft) 0,00 %
19.07.2014 19:40 29,2 C 0,0 C 0,0 C 43 % 0 cb 1010,5 hPa 0,0 l/m 0,0 km/h (0 Bft) SW 220 0 min 0,000 mm 0 W/m 15,3 C 29,2 C 0,0 km/h (0 Bft) 0,00 %
19.07.2014 19:45 29,1 C 0,0 C 0,0 C 42 % 0 cb 1010,5 hPa 0,0 l/m 2,1 km/h (1 Bft) S-SO 160 0 min 0,000 mm 0 W/m 14,9 C 29,1 C 2,1 km/h (1 Bft) 0,00 %
19.07.2014 19:50 29,1 C 0,0 C 0,0 C 43 % 0 cb 1010,5 hPa 0,0 l/m 0,0 km/h (0 Bft) O-NO 70 0 min 0,000 mm 0 W/m 15,2 C 29,1 C 0,0 km/h (0 Bft) 0,00 %
19.07.2014 19:55 29,1 C 0,0 C 0,0 C 45 % 0 cb 1010,5 hPa 0,0 l/m 0,0 km/h (0 Bft) SO 130 0 min 0,000 mm 0 W/m 15,9 C 29,1 C 0,0 km/h (0 Bft) 0,00 %
19.07.2014 20:00 28,8 C 0,0 C 0,0 C 45 % 0 cb 1010,5 hPa 0,0 l/m 0,0 km/h (0 Bft) NW 315 0 min 0,000 mm 0 W/m 15,7 C 28,8 C 0,0 km/h (0 Bft) 0,00 %
19.07.2014 20:05 28,7 C 0,0 C 0,0 C 46 % 0 cb 1010,5 hPa 0,0 l/m 0,0 km/h (0 Bft) O-SO 110 0 min 0,000 mm 0 W/m 15,9 C 28,7 C 0,0 km/h (0 Bft) 0,00 %
19.07.2014 20:10 28,6 C 0,0 C 0,0 C 46 % 0 cb 1010,5 hPa 0,0 l/m 0,3 km/h (0 Bft) N-NO 30 0 min 0,000 mm 0 W/m 15,8 C 28,6 C 0,3 km/h (0 Bft) 0,00 %
19.07.2014 20:15 29,0 C 0,0 C 0,0 C 45 % 0 cb 1010,5 hPa 0,0 l/m 0,0 km/h (0 Bft) N-NO 20 0 min 0,000 mm 0 W/m 15,8 C 29,0 C 0,0 km/h (0 Bft) 0,00 %
19.07.2014 20:20 29,0 C 0,0 C 0,0 C 45 % 0 cb 1010,5 hPa 0,0 l/m 0,0 km/h (0 Bft) O-SO 105 0 min 0,000 mm 0 W/m 15,8 C 29,0 C 0,0 km/h (0 Bft) 0,00 %
19.07.2014 20:25 28,8 C 0,0 C 0,0 C 47 % 0 cb 1010,5 hPa 0,0 l/m 0,0 km/h (0 Bft) N 355 0 min 0,000 mm 0 W/m 16,3 C 28,8 C 0,0 km/h (0 Bft) 0,00 %
19.07.2014 20:30 27,9 C 0,0 C 0,0 C 49 % 0 cb 1010,5 hPa 0,0 l/m 0,0 km/h (0 Bft) NW 315 0 min 0,000 mm 0 W/m 16,2 C 27,9 C 0,0 km/h (0 Bft) 0,00 %
19.07.2014 20:35 27,1 C 0,0 C 0,0 C 51 % 0 cb 1010,5 hPa 0,0 l/m 0,0 km/h (0 Bft) NW 310 0 min 0,000 mm 0 W/m 16,1 C 27,1 C 0,0 km/h (0 Bft) 0,00 %
19.07.2014 20:40 26,4 C 0,0 C 0,0 C 52 % 0 cb 1010,5 hPa 0,0 l/m 0,0 km/h (0 Bft) N-NW 330 0 min 0,000 mm 0 W/m 15,7 C 26,4 C 0,0 km/h (0 Bft) 0,00 %
19.07.2014 20:45 25,7 C 0,0 C 0,0 C 55 % 0 cb 1010,5 hPa 0,0 l/m 0,0 km/h (0 Bft) N-NW 335 0 min 0,000 mm 0 W/m 16,0 C 25,7 C 0,0 km/h (0 Bft) 0,00 %
19.07.2014 20:50 25,4 C 0,0 C 0,0 C 56 % 0 cb 1009,5 hPa 0,0 l/m 0,0 km/h (0 Bft) N-NO 20 0 min 0,000 mm 0 W/m 16,0 C 25,4 C 0,0 km/h (0 Bft) 0,00 %
19.07.2014 20:55 25,0 C 0,0 C 0,0 C 56 % 0 cb 1009,5 hPa 0,0 l/m 0,0 km/h (0 Bft) N-NW 345 0 min 0,000 mm 0 W/m 15,6 C 25,0 C 0,0 km/h (0 Bft) 0,00 %
19.07.2014 21:00 24,8 C 0,0 C 0,0 C 56 % 0 cb 1009,5 hPa 0,0 l/m 0,0 km/h (0 Bft) N-NW 345 0 min 0,000 mm 0 W/m 15,4 C 24,8 C 0,0 km/h (0 Bft) 0,00 %
19.07.2014 21:05 24,6 C 0,0 C 0,0 C 56 % 0 cb 1010,5 hPa 0,0 l/m 0,0 km/h (0 Bft) N 10 0 min 0,000 mm 0 W/m 15,2 C 24,6 C 0,0 km/h (0 Bft) 0,00 %
19.07.2014 21:10 24,6 C 0,0 C 0,0 C 56 % 0 cb 1010,5 hPa 0,0 l/m 0,0 km/h (0 Bft) N-NO 20 0 min 0,000 mm 0 W/m 15,2 C 24,6 C 0,0 km/h (0 Bft) 0,00 %
19.07.2014 21:15 24,4 C 0,0 C 0,0 C 57 % 0 cb 1010,5 hPa 0,0 l/m 0,0 km/h (0 Bft) N-NO 15 0 min 0,000 mm 0 W/m 15,3 C 24,4 C 0,0 km/h (0 Bft) 0,00 %
19.07.2014 21:20 24,3 C 0,0 C 0,0 C 56 % 0 cb 1009,5 hPa 0,0 l/m 0,0 km/h (0 Bft) N-NW 345 0 min 0,000 mm 0 W/m 14,9 C 24,3 C 0,0 km/h (0 Bft) 0,00 %
19.07.2014 21:25 24,0 C 0,0 C 0,0 C 57 % 0 cb 1009,5 hPa 0,0 l/m 0,0 km/h (0 Bft) NW 320 0 min 0,000 mm 0 W/m 14,9 C 24,0 C 0,0 km/h (0 Bft) 0,00 %
19.07.2014 21:30 23,8 C 0,0 C 0,0 C 57 % 0 cb 1009,5 hPa 0,0 l/m 0,0 km/h (0 Bft) N 0 0 min 0,000 mm 0 W/m 14,8 C 23,8 C 0,0 km/h (0 Bft) 0,00 %
19.07.2014 21:35 23,7 C 0,0 C 0,0 C 57 % 0 cb 1010,5 hPa 0,0 l/m 0,0 km/h (0 Bft) N-NW 340 0 min 0,000 mm 0 W/m 14,7 C 23,7 C 0,0 km/h (0 Bft) 0,00 %
19.07.2014 21:40 23,5 C 0,0 C 0,0 C 57 % 0 cb 1010,5 hPa 0,0 l/m 0,0 km/h (0 Bft) NW 320 0 min 0,000 mm 0 W/m 14,5 C 23,5 C 0,0 km/h (0 Bft) 0,00 %
19.07.2014 21:45 23,5 C 0,0 C 0,0 C 57 % 0 cb 1010,5 hPa 0,0 l/m 0,0 km/h (0 Bft) N 350 0 min 0,000 mm 0 W/m 14,5 C 23,5 C 0,0 km/h (0 Bft) 0,00 %
19.07.2014 21:50 23,5 C 0,0 C 0,0 C 57 % 0 cb 1010,5 hPa 0,0 l/m 0,0 km/h (0 Bft) N 355 0 min 0,000 mm 0 W/m 14,5 C 23,5 C 0,0 km/h (0 Bft) 0,00 %
19.07.2014 21:55 23,3 C 0,0 C 0,0 C 58 % 0 cb 1010,5 hPa 0,0 l/m 0,0 km/h (0 Bft) N-NW 335 0 min 0,000 mm 0 W/m 14,6 C 23,3 C 0,0 km/h (0 Bft) 0,00 %
19.07.2014 22:00 23,5 C 0,0 C 0,0 C 56 % 0 cb 1010,5 hPa 0,0 l/m 0,6 km/h (0 Bft) N-NO 15 0 min 0,000 mm 0 W/m 14,2 C 23,5 C 0,6 km/h (0 Bft) 0,00 %
19.07.2014 22:05 23,1 C 0,0 C 0,0 C 57 % 0 cb 1010,5 hPa 0,0 l/m 0,0 km/h (0 Bft) N-NW 345 0 min 0,000 mm 0 W/m 14,1 C 23,1 C 0,0 km/h (0 Bft) 0,00 %
19.07.2014 22:10 22,7 C 0,0 C 0,0 C 58 % 0 cb 1010,5 hPa 0,0 l/m 0,0 km/h (0 Bft) N-NW 340 0 min 0,000 mm 0 W/m 14,0 C 22,7 C 0,0 km/h (0 Bft) 0,00 %
19.07.2014 22:15 22,7 C 0,0 C 0,0 C 58 % 0 cb 1010,5 hPa 0,0 l/m 0,0 km/h (0 Bft) N-NW 340 0 min 0,000 mm 0 W/m 14,0 C 22,7 C 0,0 km/h (0 Bft) 0,00 %
19.07.2014 22:20 22,6 C 0,0 C 0,0 C 58 % 0 cb 1010,5 hPa 0,0 l/m 0,0 km/h (0 Bft) N 350 0 min 0,000 mm 0 W/m 13,9 C 22,6 C 0,0 km/h (0 Bft) 0,00 %
19.07.2014 22:25 22,6 C 0,0 C 0,0 C 57 % 0 cb 1010,5 hPa 0,0 l/m 0,0 km/h (0 Bft) N 10 0 min 0,000 mm 0 W/m 13,6 C 22,6 C 0,0 km/h (0 Bft) 0,00 %
19.07.2014 22:30 22,6 C 0,0 C 0,0 C 57 % 0 cb 1010,5 hPa 0,0 l/m 0,0 km/h (0 Bft) N 0 0 min 0,000 mm 0 W/m 13,6 C 22,6 C 0,0 km/h (0 Bft) 0,00 %
19.07.2014 22:35 22,6 C 0,0 C 0,0 C 56 % 0 cb 1010,5 hPa 0,0 l/m 0,0 km/h (0 Bft) NO 55 0 min 0,000 mm 0 W/m 13,4 C 22,6 C 0,0 km/h (0 Bft) 0,00 %
19.07.2014 22:40 22,7 C 0,0 C 0,0 C 56 % 0 cb 1010,5 hPa 0,0 l/m 0,0 km/h (0 Bft) N-NW 345 0 min 0,000 mm 0 W/m 13,5 C 22,7 C 0,0 km/h (0 Bft) 0,00 %
19.07.2014 22:45 22,8 C 0,0 C 0,0 C 56 % 0 cb 1010,5 hPa 0,0 l/m 0,0 km/h (0 Bft) N 5 0 min 0,000 mm 0 W/m 13,6 C 22,8 C 0,0 km/h (0 Bft) 0,00 %
19.07.2014 22:50 22,8 C 0,0 C 0,0 C 56 % 0 cb 1009,5 hPa 0,0 l/m 0,0 km/h (0 Bft) N-NW 345 0 min 0,000 mm 0 W/m 13,6 C 22,8 C 0,0 km/h (0 Bft) 0,00 %
19.07.2014 22:55 22,6 C 0,0 C 0,0 C 56 % 0 cb 1009,5 hPa 0,0 l/m 0,0 km/h (0 Bft) N-NW 330 0 min 0,000 mm 0 W/m 13,4 C 22,6 C 0,0 km/h (0 Bft) 0,00 %
19.07.2014 23:00 22,7 C 0,0 C 0,0 C 55 % 0 cb 1009,5 hPa 0,0 l/m 0,0 km/h (0 Bft) NO 40 0 min 0,000 mm 0 W/m 13,2 C 22,7 C 0,0 km/h (0 Bft) 0,00 %
19.07.2014 23:05 22,7 C 0,0 C 0,0 C 56 % 0 cb 1010,5 hPa 0,0 l/m 0,0 km/h (0 Bft) W-SW 245 0 min 0,000 mm 0 W/m 13,5 C 22,7 C 0,0 km/h (0 Bft) 0,00 %
19.07.2014 23:10 22,4 C 0,0 C 0,0 C 57 % 0 cb 1010,5 hPa 0,0 l/m 0,0 km/h (0 Bft) N-NW 345 0 min 0,000 mm 0 W/m 13,5 C 22,4 C 0,0 km/h (0 Bft) 0,00 %
19.07.2014 23:15 22,6 C 0,0 C 0,0 C 55 % 0 cb 1010,5 hPa 0,0 l/m 2,7 km/h (1 Bft) N-NO 30 0 min 0,000 mm 0 W/m 13,1 C 22,6 C 2,7 km/h (1 Bft) 0,00 %
19.07.2014 23:20 22,5 C 0,0 C 0,0 C 55 % 0 cb 1009,5 hPa 0,0 l/m 0,0 km/h (0 Bft) N 350 0 min 0,000 mm 0 W/m 13,0 C 22,5 C 0,0 km/h (0 Bft) 0,00 %
19.07.2014 23:25 22,4 C 0,0 C 0,0 C 56 % 0 cb 1009,5 hPa 0,0 l/m 0,0 km/h (0 Bft) N-NW 335 0 min 0,000 mm 0 W/m 13,2 C 22,4 C 0,0 km/h (0 Bft) 0,00 %
19.07.2014 23:30 22,3 C 0,0 C 0,0 C 55 % 0 cb 1009,5 hPa 0,0 l/m 0,0 km/h (0 Bft) NO 45 0 min 0,000 mm 0 W/m 12,8 C 22,3 C 0,0 km/h (0 Bft) 0,00 %
19.07.2014 23:35 22,2 C 0,0 C 0,0 C 55 % 0 cb 1009,5 hPa 0,0 l/m 0,0 km/h (0 Bft) W 280 0 min 0,000 mm 0 W/m 12,7 C 22,2 C 0,0 km/h (0 Bft) 0,00 %
19.07.2014 23:40 22,0 C 0,0 C 0,0 C 56 % 0 cb 1009,5 hPa 0,0 l/m 0,0 km/h (0 Bft) W 275 0 min 0,000 mm 0 W/m 12,8 C 22,0 C 0,0 km/h (0 Bft) 0,00 %
19.07.2014 23:45 21,8 C 0,0 C 0,0 C 57 % 0 cb 1009,5 hPa 0,0 l/m 0,0 km/h (0 Bft) NO 55 0 min 0,000 mm 0 W/m 12,9 C 21,8 C 0,0 km/h (0 Bft) 0,00 %
19.07.2014 23:50 21,9 C 0,0 C 0,0 C 57 % 0 cb 1009,5 hPa 0,0 l/m 0,0 km/h (0 Bft) N-NW 330 0 min 0,000 mm 0 W/m 13,0 C 21,9 C 0,0 km/h (0 Bft) 0,00 %
19.07.2014 23:55 21,9 C 0,0 C 0,0 C 57 % 0 cb 1009,5 hPa 0,0 l/m 0,0 km/h (0 Bft) W 260 0 min 0,000 mm 0 W/m 13,0 C 21,9 C 0,0 km/h (0 Bft) 0,00 %
_ Min-Zeit 06:10 00:00 00:00 13:10 00:00 20:50 - 06:50 - - - - - 05:40 06:10 06:50 00:00
Minimum _ 19,0 C 0,0 C 0,0 C 32 % 0 cb 1009,5 hPa - 0,0 km/h (0 Bft) - - - - - 11,1 C 19,0 C 0,0 km/h (0 Bft) 0,00 %
_ Max-Zeit 14:40 00:00 00:00 06:55 11:35 00:00 00:00 12:50 - - 00:00 00:00 00:00 20:25 14:40 12:50 00:00
Maximum _ 33,7 C 0,0 C 0,0 C 62 % 8 cb 1014,5 hPa 0,0 l/m 16,9 km/h
O-SO (3 Bft)
- - 0 min 0,000 mm 0 W/m 16,3 C 33,7 C 16,9 km/h
O-SO (3 Bft)
0,00 %
Durchschnitt _ 25,8 C 0,0 C 0,0 C 48 % 2 cb 1012,2 hPa #0,0 l/m 5,9 km/h (2 Bft) N - #0 min. #0,000 mm 0 W/m 13,6 C 25,8 C 5,9 km/h (2 Bft) 0,00 %
Wetterstation Gdesweiler